Location: Trois-Rivi�res
(46.3500°N, 72.5500°W)
Time: 05:09:25
(UTC-04:00)

Vanguard 1 - Visible Passes

Search period start: 19 October 2017 00:00
Search period end: 29 October 2017 00:00
Orbit: 650 x 3834 km, 34.3° (Epoch: 18 October)

Date Brightness Start Highest point End Pass type
(mag) Time Alt. Az. Time Alt. Az. Time Alt. Az.
19 Oct 13.3 01:10:35 32° ESE 01:10:35 32° ESE 01:22:17 10° E visible
19 Oct 12.6 03:23:18 54° SSW 03:26:29 58° S 03:49:08 10° ESE visible
19 Oct 13.2 05:36:01 20° W 05:51:42 52° SSW 06:12:56 10° SE visible
20 Oct 13.1 01:30:23 37° ESE 01:30:23 37° ESE 01:43:58 10° E visible
20 Oct 12.6 03:43:05 51° SW 03:47:42 58° S 04:10:23 10° ESE visible
20 Oct 13.2 05:55:48 16° W 06:12:46 48° SSW 06:33:25 10° SE visible
21 Oct 12.9 01:50:12 43° SE 01:50:12 43° SE 02:05:33 10° E visible
21 Oct 12.6 04:02:54 47° SW 04:08:56 57° S 04:31:31 10° ESE visible
21 Oct 13.4 06:15:37 12° W 06:33:44 42° SSW 06:53:37 10° SSE visible
21 Oct 13.9 23:57:19 13° E 23:57:19 13° E 23:59:11 10° E visible
22 Oct 12.8 02:10:02 48° SE 02:10:02 48° SE 02:27:02 10° E visible
22 Oct 12.7 04:22:45 41° WSW 04:30:08 55° SSW 04:52:28 10° ESE visible
22 Oct 13.5 06:36:18 10° W 06:54:34 36° SW 07:13:28 10° SSE visible
23 Oct 13.7 00:17:12 17° E 00:17:12 17° E 00:21:02 10° E visible
23 Oct 12.7 02:29:55 52° SSE 02:29:55 52° SSE 02:48:27 10° ESE visible
23 Oct 12.8 04:42:38 36° WSW 04:51:19 51° SSW 05:13:14 10° SE visible
24 Oct 13.6 00:37:06 21° E 00:37:06 21° E 00:42:45 10° E visible
24 Oct 12.6 02:49:50 55° SSE 02:49:50 55° SSE 03:09:45 10° ESE visible
24 Oct 12.9 05:02:33 30° WSW 05:12:25 46° SSW 05:33:44 10° SE visible
25 Oct 13.5 00:57:03 25° ESE 00:57:03 25° ESE 01:04:21 10° E visible
25 Oct 12.5 03:09:47 55° S 03:09:47 55° S 03:30:56 10° ESE visible
25 Oct 13.0 05:22:30 25° WSW 05:33:26 41° SSW 05:53:56 10° SSE visible
26 Oct 13.3 01:17:02 28° ESE 01:17:02 28° ESE 01:25:52 10° E visible
26 Oct 12.5 03:29:46 52° SSW 03:30:14 52° S 03:51:56 10° ESE visible
26 Oct 13.2 05:42:30 20° WSW 05:54:22 35° SSW 06:13:44 10° SSE visible
27 Oct 13.2 01:37:04 32° ESE 01:37:04 32° ESE 01:47:18 10° ESE visible
27 Oct 12.6 03:49:48 48° SSW 03:51:23 48° SSW 04:12:43 10° SE visible
27 Oct 13.3 06:02:32 15° W 06:15:13 29° SW 06:33:02 10° SSE visible
28 Oct 13.1 01:57:07 35° SE 01:57:07 35° SE 02:08:37 10° ESE visible
28 Oct 12.7 04:09:52 42° SW 04:12:31 44° SSW 04:33:14 10° SE visible
28 Oct 13.5 06:22:36 11° W 06:35:59 23° SW 06:51:37 10° S visible
